Timeline UpdatesTrip UpdatesNews PostsPvt PostsTravel TipsAdmin PostsConv PostsFollowed PostsChat RequestsBlog PostsPNR Posts

Disclaimer
Search
 
 
Fri Aug 22, 2014 19:17:33 ISTHomeTrainsΣChainsAtlasPNRForumGalleryNewsFAQTripsMembersLoginFeedback
Latest...
Cancelled on 20/5/14.
Mon May 19, 2014 (06:12PM)
⇐ Return Journey: Train# 13008

13007/Udyan Abha Toofan Express

May 08 2014 (6:16PM)
Change Departure Station:
Change Arrival Station:
Post a Train Travel TipPost a Train Travel Tip **new
Post a Comment/Question/Picture/VideoPost a Comment/Question/Picture/Video
Inaugural Run
Wed Jan 01, 1930
Pantry/Catering
✕ NO Pantry Car
✕ NO Catering
Loco/Rake Reversals
AGC/Agra Cantt. (6);
RSA - Rake Sharing
Rake/Coach Composition
LOCO-SLR-GEN-GEN-B1-S5-S4-S3-S2-S1-GEN-GEN-SLR-HCPV-HCPV.
Loco
HWH-NDLS: HWH WAP-4 NDLS-SGNR: TKD WDM-3A
News    PNR    Forum    Time-Table    Availability    Fare Chart    Map    Arr/Dep History    Trips    Gallery    ΣChains    X/O    Timeline    
Travel Time: 11h 56m    37 halts    Distance: 560 km    Avg Speed: 46 km/hr
Type: Mail/Express
Zone: ER/Eastern
Departs @ 09:35 (Avg 45m late)
Platform# 11
SMTWTFS
Kolkata Howrah Junction/HWH 
Arrives @ 21:31 (Avg 2h 10m late)
Platform# ???
SMTWTFS
Neora/NEO 

37 halts. 135 intermediate Stations between Kolkata Howrah Junction and Neora

Show ALL intermediate Stations  Show Old Time-Table

#CodeStation NameX/OArrivesAvgDepartsAvgHaltPFDay#KmSpeedElevZoneAddress
1HWH»Kolkata Howrah Junction (23)»  -09:35+451110.04210mERHowrah 711101, West Bengal
2BDCBandel Junction (7)X  10:32+4610:37+465m--139.67014mERdist - HOOGHLY, West Bengal
3BWNBarddhaman Junction (8)X  11:35+4911:40+505m--1106.88234mERDist - Barddhaman, West Bengal
4PANPanagarh (4)  12:15+5712:16+581m--1154.85570mERKaksa, West Bengal
5DGRDurgapur (5)X  12:33+5412:35+562m31170.47971mERDurgapur, West Bengal
6UDLAndal Junction (6)X  12:48+5812:50+582m--1187.46286mERAndal, West Bengal
7RNGRaniGanj (4)X  12:57+1:0012:58+1:021m--1194.73492mERRaniganj, West Bengal
8ASNAsansol Junction (7)X  13:30+4813:35+545m41212.840113mERDist - bardhaman, West Bengal
9STNSitarampur Junction (5)  13:48+5513:50+572m--1221.658139mERG T Rd Before Asansol, West Bengal
10CRJChittaranjan (3)X  14:07+5814:08+591m31237.966182mERMihijam, Jharkhand
11JMTJamtara (2)X  14:21+5914:22+1:011m11252.263201mERJamtara, Jharkhand
12VDSVidyasagar (2)  14:39+1:0214:40+1:031m--1270.166250mERJamtara, Jharkhand
13MDPMadhupur Junction (4)  15:02+1:0515:12+1:0110m21294.367254mER06432-224478, Jharkhand
14JSMEJasidih Junction (5)  15:38+1:0115:43+1:015m--1323.480271mERJasidih, Jharkhand
15STLSimultala (2)X  16:02+1:0916:03+1:091m--1348.830247mERSimultala, Bihar
16JAJJhajha (4)  16:40+5416:45+565m31367.562143mECRJhajha, Bihar
17GHRGidhaur (2)X  16:56+5916:57+1:031m--1378.973106mECRState Highway 18, Bihar
18JMUJamui (3)X  17:09+1:0917:10+1:131m--1393.59481mECRState Highway 72, Bihar
19MNPMananpur (2)  17:23+1:1617:24+1:201m--1413.91757mECRState Highway 18, Bihar
20BSQPBansipur  17:33+1:1917:34+1:231m--1416.42653mECRKiul, Bihar
21KIULKiul Junction (5)X  17:44+1:2317:48+1:244m31420.81253mECRDist. Lakhisarai, Bihar
22LKRLuckeesarai Junction (2)X  17:55+1:2317:56+1:231m--1422.14852mECRLakhisarai, Bihar
23MKBMankatha  18:03+1:2218:04+1:241m--1427.73547mECRNational Highway 80, Bihar
24DMRXDumri Halt (1)  18:13-18:14-1m11433.05149mECRNational Highway 80, Bihar
25BRYABarhiya (3)  18:19+1:2318:20+1:241m--1437.25647mECRBarahiya, Bihar
26HTZHathidah Junction (2)X  18:30+1:2518:31+1:261m21446.65650mECRMusahari, Bihar
27MKAMokama Junction (4)X  18:40+1:3018:44+1:304m--1455.07248mECRPatna, Bihar
28MORMor (2)X  18:50+1:3218:51+1:321m--1462.25546mECRMor, Bihar
29PHKPunarakh (2)  19:00+1:3119:01+1:341m--1470.56251mECRPunarakh, Bihar
30BARHBarh (3)X  19:11+1:3219:12+1:361m--1480.96949mECRBarh, Bihar
31ATLAthmal Gola (2)XO  19:20+1:3619:21+1:371m--1490.12252mECRPatna, Bihar
32BKPBakhtiyarpur Junction (5)X  19:46+1:1919:48+1:232m--1499.17951mECRPatna, Bihar
33KOOKhusropur (2)  19:59+1:2720:00+1:321m--1513.75652mECRPatna, Bihar
34FUTFatwa (6)  20:09+1:3420:10+1:391m--1522.17353mECRPatna, Bihar
35PNCPatna Saheb (3)X  20:20+1:4420:21+1:481m--1534.42659mECRPatna, Bihar
36GZHGulzarbagh (3)X  20:28+1:4720:29+1:541m--1537.42055mECRPatna, Bihar
37PNBEPatna Junction (10)X  20:50+1:5821:00+2:0410m41544.23857mECRPatna 800001, Bihar
38DNRDanapur (5)XO  21:15+2:0621:25+2:0710m--1553.66058mECRKhagaul, Bihar
39NEO•Neora (2)•X  21:31+2:1021:32+2:151m--1559.76161mECRNational Highway 98, Bihar
40SDESadisopur (2)  21:39-21:40-1m--1566.85164mECRSadisopur, Bihar
41BTABihta (2)X  21:45+2:1721:46+2:221m--1571.04862mECRDistt: Patna, Bihar
42KWRKoelwar (2)O  21:57-21:58-1m--1579.73165mECRNational Highway 30, Bihar
43KUAKulharia (2)  22:05+2:1922:06+2:201m--1583.35461mECRChandi Sahar Rd, Bihar
44ARAAra Junction (3)  22:17+2:1622:22+2:175m--1593.29263mECRarrah( 06182-233411), Bihar
45BEABihiya (3)  22:36+2:2322:37+2:251m--1614.65167mECRBehea, Bihar
46BYNBanahi (2)  22:44+2:2522:45+2:251m--1620.55967mECRBanahi, Bihar
47RPRRaghunathpur (4)  22:54+2:2122:55+2:231m--1629.47469mECRRaghunathpur, Bihar
48DUREDumraon (3)  23:08+2:2723:09+2:281m--1645.36170mECRDumraon, Bihar
49BXRBuxar (3)X  23:25+2:2623:30+2:255m--1661.78067mECRBuxar, Bihar
50DLNDildarnagar Junction (2)  23:57+2:3023:59+2:302m--1697.95872mECRDildarnagar, Uttar Pradesh
51ZNAZamania (2)XO  00:13+2:3300:14+2:341m--2711.42077mECRGhazipur, Uttar Pradesh
52MGSMughal Sarai Junction (8)XO  02:25+1:2102:40+1:2315m--2755.65583mECRMughalsarai 232101, Uttar Pradesh
53CARChunar Junction (5)X  03:15+1:5203:16+1:571m22787.56185mNCRChunar Junction, Uttar Pradesh
54MZPMirzapur (3)O  03:47+2:2003:48+2:231m--2818.84988mNCRMirzapur, Uttar Pradesh
55BDLVindhyachal (3)  03:57+2:1903:58+2:221m--2826.17488mNCRMirzapur, Uttar Pradesh
56ALDAllahabad Junction (10)X  05:05+3:2205:15+3:2410m22908.377100mNCRAllahabad 211003, Uttar Pradesh
57BREBharwariX  05:44+3:4105:45+3:441m--2945.475108mNCRBharwari, Uttar Pradesh
58SROSirathu (2)X  06:01+3:4606:02+3:491m12965.571109mNCRSirathu, Uttar Pradesh
59KGAKhaga (3)  06:23+3:5206:24+3:561m--2990.352114mNCRFatehpur, Uttar Pradesh
60FTPFatehpur (3)  07:04+3:5107:05+3:571m--21025.085120mNCRFatehpur, Uttar Pradesh
61BKOBindki Road  07:27+4:0207:28+4:051m--21056.349124mNCRFatehpur, Uttar Pradesh
62CNBKanpur Central (10)O  08:25+4:1408:40+4:1715m221102.625128mNCRKANPUR-208 001, Uttar Pradesh
63GOYGovindpuri Junction (2)  08:49+4:2208:50+4:221m--21106.451129mNCRKANPUR-208 006, Uttar Pradesh
64PNKPanki (3)  08:59+4:3409:00+4:371m--21114.186129mNCRKANPUR-208 020, Uttar Pradesh
65RURARura (4)  09:23+4:4509:24+4:501m--21146.971137mNCRJhinjhak, Uttar Pradesh
66JJKJhinjhak (3)  09:40+4:4909:41+4:531m321165.974140mNCRAuraiya, Uttar Pradesh
67PHDPhaphund (4)X  09:57+4:5709:58+4:591m--21185.767146mNCRdist. Auraiya, Uttar Pradesh
68ULDAchalda (3)X  10:13+4:5810:14+5:011m--21202.573147mNCRDist. Auraiya(05688-1072), Uttar Pradesh
69BNTBharthana (3)X  10:30+5:0110:31+5:041m--21222.052147mNCRBharthana, Uttar Pradesh
70ETWEtawah (5)  10:54+5:0510:55+5:101m221241.980154mNCRDistt. Etawah, Uttar Pradesh
71JGRJaswantnagar (2)X  11:07+5:1311:08+5:141m--21257.969154mNCRJaswantnagar, Uttar Pradesh
72BDNBhadan (2)  11:25+5:1411:26+5:171m--21277.352160mNCRFirozabad, Uttar Pradesh
73SKBShikohabad Junction (4)X  11:49+5:1311:50+5:161m321297.338166mNCRDistrict Firozabad, Uttar Pradesh
74FZDFirozabad (4)  12:21+5:0612:22+5:091m321317.223164mNCRFirozabad, Uttar Pradesh
75TDLTundla Junction (5)  13:05+4:5413:15+4:5310m221333.721167mNCRDistt.Firozabad, Uttar Pradesh
76AFAgra Fort (3)  14:20+4:4014:25+5:055m221356.714170mNCRRakabganj, Uttar Pradesh
77IDHIdgah Agra Junction (3)  14:34+5:0714:35+5:281m--21358.85168mNCRAgra, Uttar Pradesh
78AGCAgra Cantt. (6)XO15:00+5:1415:20+5:3720m321361.013174mNCRAgra, Uttar Pradesh
79RKMRaja Ki Mandi (4)  15:38+5:3115:39+5:321m121365.065170mNCRAgra, Uttar Pradesh
80MTJMathura Junction (10)  16:25+5:3316:33+5:318m221414.772179mNCRMathura, Uttar Pradesh
81CHJChata (4)X  16:59+5:3817:00+5:401m--21445.851 NCRChhata, Uttar Pradesh
82KSVKosi Kalan (3)X  17:12+5:3917:13+5:401m121456.155189mNCRKosi Kalan, Uttar Pradesh
83PWLPalwal (8)X  17:59+5:2818:00+5:321m--21498.656200mNRPalwal, Haryana
84ASTAsaoti (5)  18:12+5:3418:13+5:341m321509.959203mNRAsaoti, Haryana
85BVHBallabgarh (5)  18:23+5:3818:24+5:391m--21519.850203mNRFaridabad, Haryana
86FDNFaridabad New Town (3)X  18:29+5:4118:30+5:411m--21523.947204mNRFaridabad, Haryana
87FDBFaridabad (4)  18:35+5:4418:36+5:451m221527.848206mNRold Faridabad, Haryana
88TKDTuglakabad (4)X  18:50+5:4118:51+5:421m--21538.933213mNRNear Tughlakabad Metro Station, Delhi NCT
89OKAOkhla (4)  19:02+5:4619:03+5:461m--21544.918221mNRIshwar Nagar Mathura Road, Delhi NCT
90NZMDelhi Hazrat Nizamuddin (7)X  19:15+5:4219:17+5:422m321548.648209mNRNew Delhi 110013, Delhi NCT
91TKJTilak Bridge (4)X  19:23+5:4219:24+5:411m--21553.49214mNRNew Delhi, Delhi NCT
92NDLSNew Delhi (16)X  19:40+5:4320:10+5:4330m221555.814215mNRNew Delhi, Delhi NCT
93DKZDelhi KishanGanj (2)  20:27+5:4320:28+5:441m--21559.732220mNRSarai Rohilla, Delhi NCT
94SSBShakur BastiX  20:41+5:4520:42+5:461m--21566.745216mNRPitampura, Delhi NCT
95NNONangloiX  20:52+5:4320:53+5:441m--21574.158219mNRJJ Colony No 1, Delhi NCT
96BGZBahadurgarh  21:06+5:4721:07+5:481m--21586.672220mNRBahadurgarh, Haryana
97SPZSamplaX  21:22+5:5221:23+5:541m--21604.650222mNRSampla, Haryana
98ROKRohtak Junction (3)  21:50+5:5121:55+5:495m--21626.967220mNRRohtak, Haryana
99JNAJulana  22:23+5:4922:24+5:501m--21658.350226mNRJulana, Haryana
100JINDJind Junction (3)  22:55+5:4223:00+5:415m--21684.070222mNR126102., Haryana
101UCAUchana  23:16+5:4123:17+5:431m--21702.765225mNRDistrict Jind, Haryana
102NRWNarwana Junction (4)  23:31+5:4923:32+5:501m--21717.973235mNRWay to Narwana, Haryana
103TUNTohana (2)  23:53+5:5023:54+5:511m--21743.335232mNRTohana, Haryana
104JHLJakhal Junction  00:15+5:4500:25+5:4010m--31755.643225mNRJakhal, Haryana
105BLZBudhladaX  01:06+5:2501:07+5:261m--31785.248223mNRBudhlada, Punjab
106MSZMansa  01:27+5:2701:28+5:291m--31801.349222mNRMansa, Punjab
107MAURMaur  01:51+5:3101:52+5:321m--31820.026220mNRMaur Mandi, Punjab
108BTIBathinda Junction (6)XO  03:15+5:0904:05+4:5350m231855.573208mNRBathinda, Punjab
109GDBGiddarbaha  04:28+5:0204:29+5:101m--31883.357200mNRGiddarbaha, Punjab
110MOTMalout (1)  04:46+5:1104:47+5:121m131899.544194mNRMalaut, Punjab
111ABSAbohar  05:27+5:0005:28+5:031m--31929.035186mNRAbohar, Punjab
112SGNRShri Ganganagar  07:00+4:35-331982.1-178mNWRSri Ganganagar, Rajasthan
Scroll to Top
Scroll to Bottom